www.pogodaiklimat.ru

ПОГОДА в Монро, MI

  • Прогноз погоды в Монро
  • Монитор погоды в Монро
  • Климат в Монро

АРХИВ ПОГОДЫ в Монро

Время (UTC), дата Ветер
(напр.,м/с)
 
Видим.   Явления Облачность Т
(С)
Тd
(С)
f
(%)
Тe
(С)
Тes
(С)
Комфортность

P
(гПа)

Po
(гПа)
Тmin
(С)
Tmax
(С)
R
(мм)
SD
(см)
02:15 27.05   16 км    ясно  +13.6  +13.3  98  +13  +13      995.3         
02:16 27.05   16 км    ясно  +13.6  +13.3  98  +13  +13      995.3         
02:35 27.05   5 км  дымка  ясно  +13.0  +12.7  98  +12  +12      995.7         
02:55 27.05   1 км  дымка  ?/?  +12.6  +12.4  99  +12  +12      995.7         
03:15 27.05   1 км  дымка  ?/?  +12.1  +11.8  98  +11  +11      995.7         
03:16 27.05   1 км  дымка  ?/?  +12.1  +11.8  98  +11  +11      995.7         
03:35 27.05   400 м  туман  10/10 60 м  +12.1  +11.8  98  +11  +11      995.7         
03:36 27.05   800 м  туман  10/10 60 м  +12.0  +11.7  98  +11  +11      995.7         
03:55 27.05   800 м  туман  10/10 60 м  +12.0  +11.7  98  +11  +11      995.7         
04:15 27.05   400 м  туман  10/10 60 м  +11.2  +11.0  99  +10  +10      995.7         
04:16 27.05   400 м  туман  10/10 60 м  +11.3  +11.1  99  +11  +11      995.7         
04:35 27.05   800 м  туман  8/8 60 м  +11.6  +11.2  97  +11  +11      995.7         
04:36 27.05   800 м  туман  8/8 60 м  +11.5  +11.2  98  +11  +11      995.7         
04:55 27.05   2 км  дымка  8/8 60 м  +11.8  +11.5  98  +11  +11      995.7  +11.2  +17.0     
05:15 27.05   400 м  туман  10/10 60 м  +10.4  +10.1  98  +10  +10      995.7         
05:35 27.05   400 м  туман  10/10 60 м  +10.7  +10.5  99  +10  +10      995.7         
05:36 27.05   800 м  туман  10/10 60 м  +10.8  +10.5  98  +10  +10      995.7         
05:55 27.05   1 км  дымка  8/8 60 м  +10.8  +10.5  98  +10  +10      995.7         
06:15 27.05   800 м  туман  ?/?  +10.6  +10.3  98  +10  +10      995.7         
06:35 27.05   400 м  туман  10/10 60 м  +10.3  +10.0  98  +9  +9      995.7         
06:36 27.05   400 м  туман  10/10 60 м  +10.2  +9.9  98  +9  +9      995.7         
06:55 27.05   400 м  туман  10/10 60 м  +10.2  +9.9  98  +9  +9      995.7         
06:56 27.05   400 м  туман  10/10 60 м  +10.2  +9.8  97  +9  +9      995.3         
07:15 27.05   400 м  туман  10/10 60 м  +9.6  +9.3  98  +9  +9      995.7         
07:35 27.05   800 м  туман  10/10 60 м  +9.4  +9.0  97  +8  +8      995.7         
07:36 27.05   800 м  туман  10/10 60 м  +9.3  +9.0  98  +8  +8      995.7         
07:55 27.05   800 м  туман  10/10 60 м  +8.6  +8.3  98  +8  +8      995.3         
07:56 27.05   800 м  туман  10/10 60 м  +8.6  +8.3  98  +8  +8      995.3         
08:15 27.05   800 м  туман  10/10 60 м  +9.4  +9.2  99  +8  +8      995.7         
08:35 27.05   1 км  дымка  8/8 60 м  +9.5  +9.2  98  +9  +9      996.0         
08:55 27.05   н/о  туман  10/10 60 м  +8.5  +8.1  97  +8  +8      996.0         
08:56 27.05   н/о  туман  10/10 60 м  +8.5  +8.1  97  +8  +8      996.0         
09:15 27.05   400 м  туман  10/10 60 м  +9.1  +8.8  98  +8  +8      996.3         
09:16 27.05   400 м  туман  10/10 60 м  +9.1  +8.7  97  +8  +8      996.3         
09:35 27.05   н/о  туман  10/10 60 м  +8.4  +8.1  98  +7  +7      996.7         
09:55 27.05   400 м  туман  10/10 60 м  +8.7  +8.5  99  +8  +8      996.7         
09:56 27.05   400 м  туман  10/10 60 м  +8.8  +8.5  98  +8  +8      996.7         
10:15 27.05   2 км  дымка  10/10 60 м  +10.0  +9.6  97  +9  +9      996.3         
10:16 27.05   2 км  дымка  10/10 60 м  +10.0  +9.7  98  +9  +9      996.3         
10:35 27.05   4 км  дымка  5/5 60 м  +10.9  +10.5  97  +10  +10      996.3         
10:55 27.05   11 км    ясно  +11.7  +11.4  98  +11  +12      996.3  +8.4  +11.7     
10:56 27.05   11 км    ясно  +11.8  +11.5  98  +11  +12      996.3  +8.4  +11.8     
11:15 27.05 С  16 км    ясно  +12.8  +12.4  97  +12  +15      996.7         
11:16 27.05   16 км    ясно  +12.8  +12.5  98  +12  +15      996.7         
11:35 27.05   16 км    ясно  +13.3  +13.0  98  +13  +16      997.0         
11:55 27.05   16 км    ясно  +14.0  +13.6  97  +14  +17      997.3         
12:15 27.05   16 км    ясно  +14.5  +13.3  93  +14  +22      997.3         
12:16 27.05   16 км    ясно  +14.5  +13.4  93  +14  +22      997.3         

 

Местоположение метеостанции Custer Airport: широта 41.9400 долгота -83.4347 высота над уровнем моря 188 м.

В архиве по умолчанию представлена погода в Монро за последние 1-2 суток. Обновление информации о фактической погоде в базе происходит ежечасно! Архивные данные за месяц целиком и за предыдущие месяцы Вы можете получить, выбрав интересующий диапазон дат из раскрывающегося списка и нажав кнопку "Ввод!".

Внимание! Архив погоды МЕТАР в базе сайта хранится не более 60 дней. Нет смысла пытаться выбрать более раннюю дату.

Внимание! Время в таблицах - всемирное. Для получения местного времени необходимо прибавить поправку, которая в Монро равна -5 ч.

Ветер - указаны скорость ветра в м/с и направление, откуда дует ветер: С - северный, СВ - северо-восточный, В - восточный, ЮВ - юго-восточный, Ю - южный, ЮЗ - юго-западный, З - западный, СЗ - северо-западный.
Видимость - горизонтальная дальность видимости в метрах или километрах. При видимости от 1 до 10 км при отсутствии осадков обычно наблюдается дымка, при ухудшении видимости до 1 км и менее - туман. В сухую погоду видимость может ухудшаться дымом, пылью или мглою.
Атмосферные явления - указаны явления, наблюдавшиеся в указанный момент времени.
Облачность - указаны через наклонную черту верхняя и нижняя облачность в баллах и высота нижней границы облаков в метрах. Внимание: облачность, как и прочие метеорологические величины в США измеряются автоматическими метеостанциями. Указанные значения в баллах носят условный характер и показывают процент времени, в течение которого, в среднем, лазерный луч высотомера отражался от облаков обратно.
T - Температура воздуха - температура, измеренная на высоте 2 м над землей.
Td - Температура точки росы - температура, при понижении до которой содержащийся в воздухе водяной пар достигнет насыщения.
f - Относительная влажность воздуха - влажноcть воздуха, измеренная на высоте 2 м над землей.
Te - Эффективная температура - температура, которую ощущает одетый по сезону человек в тени. Характеристика душности погоды. При расчете учитывается влияние влажности воздуха и скорости ветра на теплоощущения человека.
Tes - Эффективная температура на солнце - температура, которую ощущает человек, с поправкой на солнечный нагрев. Характеристика знойности погоды. Зависит от высоты солнца над горизонтом, облачности и скорости ветра. Ночью, в пасмурную погоду, а также при ветре 12 м/с и более поправка равна нулю.
P - Атмосферное давление - приведенное к уровню моря атмосферное давление.
Po - Атмосферное давление - измеренное на уровне метеостанции атмосферное давление.
Tmin - Минимальная температура - минимум температуры воздуха на высоте 2 м над землей.
Tmax - Максимальная температура - максимум температуры воздуха на высоте 2 м над землей.
R - Количество осадков - Количество выпавших осадков за 3 или 6 часов, мм.
SD - Снежный покров - Высота снежного покрова, см.